This is the latest recevied weather packets stored in our database for station/object SP3OTE-2. If no packets are shown the sender has not sent any weather packets the latest 10 day(s).
| Time | Temp. | Humidity | Pressure | Rain* | Wind** | Luminosity | Snow |
|---|---|---|---|---|---|---|---|
| 1777717495 | 21.67° C | 34% | 1024 hPa | - | - | - | - |
| 1777716895 | 21.67° C | 36% | 1024.4 hPa | - | - | - | - |
| 1777716294 | 21.11° C | 35% | 1024.5 hPa | - | - | - | - |
| 1777715694 | 21.11° C | 35% | 1024.5 hPa | - | - | - | - |
| 1777715094 | 20.56° C | 37% | 1024.6 hPa | - | - | - | - |
| 1777714494 | 20.56° C | 37% | 1024.8 hPa | - | - | - | - |
| 1777713893 | 20.56° C | 36% | 1024.8 hPa | - | - | - | - |
| 1777713293 | 20.56° C | 37% | 1024.9 hPa | - | - | - | - |
| 1777712693 | 20.56° C | 38% | 1024.9 hPa | - | - | - | - |
| 1777712093 | 20° C | 39% | 1025 hPa | - | - | - | - |
| 1777711493 | 20° C | 39% | 1025.1 hPa | - | - | - | - |
| 1777710892 | 19.44° C | 40% | 1025.2 hPa | - | - | - | - |
| 1777710292 | 18.89° C | 41% | 1025.3 hPa | - | - | - | - |
| 1777709692 | 18.89° C | 41% | 1025.3 hPa | - | - | - | - |
| 1777709092 | 18.89° C | 43% | 1025.4 hPa | - | - | - | - |
| 1777708492 | 18.33° C | 43% | 1025.4 hPa | - | - | - | - |
| 1777707891 | 17.78° C | 47% | 1025.5 hPa | - | - | - | - |
| 1777707291 | 17.78° C | 49% | 1025.4 hPa | - | - | - | - |
| 1777706691 | 17.22° C | 50% | 1025.5 hPa | - | - | - | - |
| 1777706090 | 16.67° C | 52% | 1025.5 hPa | - | - | - | - |
| 1777705490 | 16.11° C | 52% | 1025.5 hPa | - | - | - | - |
| 1777704890 | 15.56° C | 55% | 1025.5 hPa | - | - | - | - |
| 1777704289 | 15° C | 59% | 1025.5 hPa | - | - | - | - |
| 1777703689 | 13.89° C | 64% | 1025.6 hPa | - | - | - | - |
| 1777703089 | 13.33° C | 66% | 1025.6 hPa | - | - | - | - |
* Rain since midnight (hover to see other rain measurements)
** Current wind speed in m/s (hover to see current wind gust speed)